Regional Weather Roundup
Issued by NWS

Home | Current Version | Previous Version | Text Only | Print | Product List | Glossary On
Versions: 1 2 3 4 5 6 7 8 9 10 11 12 13 14 15 16 17 18 19 20 21 22 23 24 25 26 27 28 29 30 31 32 33 34 35 36 37 38 39 40 41 42 43 44 45 46 47 48 49 50
000
ASUS43 KMKX 302111
RWRWI

WISCONSIN REGIONAL WEATHER ROUNDUP
NATIONAL WEATHER SERVICE MILWAUKEE/SULLIVAN WI
400 PM CDT THU OCT 30 2014

NOTE: "FAIR" INDICATES FEW OR NO CLOUDS BELOW 12,000 FEET WITH NO
SIGNIFICANT WEATHER AND/OR OBSTRUCTIONS TO VISIBILITY.

WIZ001-002-006>008-014>016-023>028-302200-
NORTHWEST WISCONSIN

CITY           SKY/WX    TMP DP  RH WIND       PRES   REMARKS
SUPERIOR ARPT  CLOUDY    45  33  63 NW16      30.11R
ASHLAND        CLOUDY    43  33  68 NW10      30.07S
HAYWARD        CLOUDY    42  31  64 NW8       30.08R
SIREN          CLOUDY    42  32  67 NW12      30.11R
CUMBERLAND     CLOUDY    39  34  81 NW9       30.09R WCI  33
RICE LAKE      LGT RAIN  42  35  77 W10       30.10R
CHETEK         RAIN      42  35  76 W3        30.08S
LADYSMITH      CLOUDY    43  35  72 W7        30.07S
EAU CLAIRE     CLOUDY    48  34  58 NW7       30.06F
MENOMONIE      CLOUDY    49  35  58 NW9       30.08R
NEW RICHMOND   CLOUDY    45  34  65 N13       30.11R
OSCEOLA        CLOUDY    44  36  73 N8        30.15R
$$

WIZ003>005-009-010-017-018-302200-
NORTH CENTRAL WISCONSIN

CITY           SKY/WX    TMP DP  RH WIND       PRES   REMARKS
MANITOWISH WTR CLOUDY    38  32  79 W9        30.02R WCI  31
ARBOR VITAE    CLOUDY    40  32  74 NW8       30.02R WCI  34
WOODRUFF       CLOUDY    40  32  74 NW8       30.02R WCI  34
RHINELANDER    CLOUDY    41  31  67 W8        30.02S
EAGLE RIVER    CLOUDY    39  30  71 NW5       30.00S
LAND O LAKES   CLOUDY    39  32  76 W7        30.01S WCI  34
PHILLIPS       CLOUDY    40  31  70 NW6       30.03S
TOMAHAWK       CLOUDY    42  31  67 CALM      30.02F
MEDFORD        CLOUDY    40  34  78 W9        30.03S WCI  34
MERRILL        CLOUDY    43  32  66 NW7       30.02R
$$

WIZ029-030-035-036-043>047-302200-
CENTRAL WISCONSIN

CITY           SKY/WX    TMP DP  RH WIND       PRES   REMARKS
WAUSAU         CLOUDY    44  33  65 W8        30.02R
MOSINEE        CLOUDY    45  36  70 W9        30.04R
MARSHFIELD     CLOUDY    46  34  62 NW12      30.04R
STEVENS POINT  CLOUDY    45  34  65 W5        30.03S
WAUPACA        CLOUDY    52  35  52 W9        30.03S
WAUTOMA        CLOUDY    51  35  54 W8        30.04R
WISC RAPIDS    CLOUDY    49  34  56 NW12      30.05R
CAMP DOUGLAS   CLOUDY    48  37  66 W8        30.05S
$$

WIZ011>013-019>022-031-037>040-048>050-302200-
NORTHEAST WISCONSIN

CITY           SKY/WX    TMP DP  RH WIND       PRES   REMARKS
ANTIGO         CLOUDY    42  34  71 W6        30.01R
SHAWANO        CLOUDY    48  35  59 W3        30.01F
OCONTO         CLOUDY    47  34  62 W8        30.01S
STURGEON BAY   PTSUNNY   45  34  65 W9        30.01S
GREEN BAY      CLOUDY    47  36  65 W7        30.02S
MANITOWOC      CLOUDY    48  36  63 W8        30.03S
APPLETON       PTSUNNY   48  34  57 W12       30.02S
CLINTONVILLE   CLOUDY    46  34  61 W13       30.01F
OSHKOSH        CLOUDY    49  35  58 W6        30.02F
$$

WIZ032>034-041-042-053>061-302200-
SOUTHWEST WISCONSIN

CITY           SKY/WX    TMP DP  RH WIND       PRES   REMARKS
LA CROSSE      CLOUDY    47  37  68 S3        30.07S
SPARTA         CLOUDY    47  36  63 W5        30.07S
VIROQUA        CLOUDY    45  36  70 W3        30.06S
BOSCOBEL       CLOUDY    50  36  58 CALM      30.07S
PRAIRIE DU CHI CLOUDY    49  36  60 CALM      30.06S
PLATTEVILLE    CLOUDY    49  37  63 NW3       30.07R
$$

WIZ056-057-062-063-064-067-068-302200-
SOUTH CENTRAL WISCONSIN

CITY           SKY/WX    TMP DP  RH WIND       PRES   REMARKS
REEDSBURG      CLOUDY    47  37  68 W7        30.06S
BARABOO/DELLS  CLOUDY    47  35  61 W7        30.06R
LONE ROCK      CLOUDY    52  37  56 NW6       30.07R
MINERAL POINT  CLOUDY    50  36  57 W3        30.06R
MADISON        CLOUDY    50  34  54 W6        30.06R
MIDDLETON      CLOUDY    50  35  55 NW5       30.06R
WATERTOWN      CLOUDY    48  35  59 W5        30.05R
MONROE         CLOUDY    48  36  61 NW6       30.05S
JANESVILLE     CLOUDY    52  34  50 W6        30.05S
$$

WIZ051-052-058>065-066-070>072-302200-
SOUTHEAST WISCONSIN

CITY           SKY/WX    TMP DP  RH WIND       PRES   REMARKS
MILWAUKEE      PTSUNNY   51  32  48 W8        30.04S
WAUKESHA       CLOUDY    46  34  61 W8        30.05R
MILWAUKEE/TIMM CLOUDY    50  32  50 W9        30.05S
RACINE         PTSUNNY   51  34  52 W5        30.06S
BURLINGTON     CLOUDY    49  33  54 NW7       30.05R
KENOSHA        CLOUDY    51  35  54 W10       30.05S
FOND DU LAC    CLOUDY    49  34  56 W6        30.04R
SHEBOYGAN      CLOUDY    49  34  56 NW7       30.03S
WEST BEND      CLOUDY    46  32  57 W9        30.04R
JUNEAU         CLOUDY    48  34  60 W3        30.06R
$$

LSZ147-162-302200-
LAKE SUPERIOR

STATION/POSITION TIME  TEMP    WIND        PRES    WAVE
                       AIR SEA DIR/SP/G            HT/PER
                 (UTC) (F)     (DEG/KT/KT) (MB)    (FT/S)
W MID LAKE BUOY  2050   43 45  270/ 14/ 16 1016.5F   1/ 3
DEVILS ISLAND    2100   43     270/ 16/ 18 1018.2R
PORT WING        2000   43     290/ 12/ 15 1018.6F
SAXON HARBOR     2000   43     290/  8/ 13 1017.6
$$

LMZ867-665-643>646-302200-
LAKE MICHIGAN

STATION/POSITION TIME  TEMP    WIND        PRES    WAVE
                       AIR SEA DIR/SP/G            HT/PER
                 (UTC) (F)     (DEG/KT/KT) (MB)    (FT/S)
CHAMBERS ISLAND  2000   46     240/  5/ 10 1016.3F
N MID LAKE BUOY  2050   45 51  270/ 14/ 17 1015.9S   2/ 3
NORTHPORT PIER   2000   46     260/  2/ 13 1015.9F
KEWAUNEE LAKESHO 2000   47     260/  7/ 10 1015.5F
SHEBOYGAN LAKESH 2100   49 50  300/ 10/ 10 1017.6R
PORT WASHINGTON  2000   53     290/  7/ 11 1017.6F
ATWATER BUOY     2100   51     280/ 10/ 10 1018.4R
MILWAUKEE LAKESH 2000   50     270/  9/ 12   N/A
S MID LAKE BUOY  2050   48 53  230/ 10/ 12 1017.9F   2/ 4
KENOSHA   LAKESH 2100   51     260/ 10/ 11 1017.3F
$$

TC  - TEMPERATURE IN CELSIUS
VSB - VISIBILITY IN STATUTE MILES
WCI - WIND CHILL INDEX
HX  - HEAT INDEX




USA.gov is the U.S. government's official web portal to all federal, state and local government web resources and services.